Find Starlink 30161

NORAD ID: 57476 Int'l Des: 2023-107 Owner: SPXS Country: US Constellation: starlink operational
LEOCIRCULAR

实时位置

正在加载3D地球...

关于 Starlink 30161

正在加载描述...

即将过境

Passes for default location (London). Set your location on the main map for personalized predictions.

高度历史

Loading altitude history...

两行轨道根数

1 57476U 23107V 26129.97703610 -.00001917 00000-0 -60162-4 0 9994
2 57476 43.0031 349.6876 0001525 269.5062 90.5615 15.27569342154525
Epoch: May 9, 2026 • Age: 15 hours

当前状态

高度 484.9 km
速度 7.63 km/s
星下点 32.17°N, 43.71°E
发射日期 Jul 28, 2023
运行时间 2.7 years
类型 internet

技术详情

分类 Payload
质量 730.00 kg
干质量 700.00 kg
总质量 730.00 kg
长度 0.30 m
直径 4.10 m
跨度 29.00 m
形状 Box + pan
制造商 SPXS
平台类型 Starlink V2M
阶段状态 In Orbit
所有者/国家 SPXS/US

Most Searched